GW5243 Weather Reports


Display with metric or nautical units.
time (UTC)temp
F
wind
direction
speed
MPH
gust
MPH
rain 1hr
in
rain 24hr
in
rain mn
in
humidity
%
barometer
mb
20260507084538 0 0.0 0.0 0.00 0.65 0.00 1007.0
20260507083023 0 0.0 0.0 0.00 0.65 0.00 1007.0
20260507081525 0 0.0 0.0 0.00 0.65 0.00 1007.1
20260507080025 0 0.0 0.0 0.00 0.65 0.00 1006.9
20260507074524 0 0.0 0.0 0.00 0.65 0.00 1007.1
20260507073026 0 0.0 0.0 0.00 0.65 0.00 1007.0
20260507071527 0 0.0 0.0 0.00 0.65 0.00 1006.7
20260507070027 0 0.0 0.0 0.00 0.65 0.00 1006.6
20260507064525 43 260 0.0 1.0 0.00 0.65 0.00 95 1006.3
20260507063026 43 277 1.0 2.0 0.00 0.65 0.00 95 1006.8
20260507061526 43 10 0.0 2.0 0.00 0.65 0.00 95 1006.7
20260507060021 43 352 0.0 2.0 0.00 0.65 0.00 94 1006.9
20260507054503 44 321 0.0 2.0 0.00 0.65 0.00 94 1007.1
20260507053004 43 5 0.0 2.0 0.00 0.65 0.00 94 1007.3
20260507051508 44 242 0.0 2.0 0.00 0.65 0.00 94 1007.0
20260507050034 44 9 1.0 3.0 0.00 0.65 0.00 93 1006.9
20260507044518 44 298 0.0 2.0 0.00 0.65 0.00 94 1006.8
20260507043004 45 298 1.0 2.0 0.00 0.65 0.00 94 1006.8
20260507041511 45 289 0.0 2.0 0.00 0.65 0.00 94 1007.1
20260507040013 45 311 0.0 2.0 0.00 0.65 0.00 94 1006.9
20260507034515 45 289 0.0 2.0 0.01 0.65 0.65 93 1006.7
20260507033020 45 260 0.0 2.0 0.02 0.65 0.65 92 1006.9
20260507031504 45 295 2.0 6.0 0.04 0.65 0.65 92 1007.0
20260507030013 45 248 1.0 4.0 0.04 0.65 0.65 92 1006.9
20260507024516 46 319 1.0 2.0 0.04 0.64 0.64 93 1007.0
20260507023016 46 285 0.0 3.0 0.04 0.63 0.63 93 1007.0
20260507021529 47 268 1.0 4.0 0.04 0.61 0.61 93 1007.1
20260507020009 47 183 0.0 3.0 0.05 0.61 0.61 92 1007.1
20260507014512 48 253 1.0 4.0 0.04 0.60 0.60 92 1006.9
20260507013012 49 292 3.0 7.0 0.04 0.58 0.58 92 1006.5
20260507011523 49 240 1.0 6.0 0.02 0.57 0.57 93 1006.5
20260507010032 49 317 1.0 5.0 0.01 0.56 0.56 92 1005.9
20260507004507 50 315 1.0 10.0 0.01 0.56 0.56 92 1005.7
20260507003015 51 302 2.0 8.0 0.02 0.55 0.55 92 1005.5
20260507001516 52 305 0.0 2.0 0.08 0.55 0.55 92 1005.1
20260507000026 52 232 1.0 8.0 0.13 0.55 0.55 92 1004.9
20260506234524 53 265 2.0 6.0 0.13 0.55 0.55 92 1004.5
20260506233007 54 334 2.0 8.0 0.12 0.52 0.52 90 1004.2
20260506231518 58 269 0.0 2.0 0.08 0.47 0.47 94 1003.8
20260506230022 58 254 0.0 2.0 0.04 0.42 0.42 94 1003.5
20260506224524 58 123 1.0 5.0 0.05 0.42 0.42 94 1003.7
20260506223025 58 223 1.0 2.0 0.04 0.41 0.41 94 1003.8
20260506221512 58 209 0.0 3.0 0.02 0.39 0.39 94 1003.7
20260506220018 58 240 0.0 6.0 0.01 0.38 0.38 93 1003.6
20260506214523 58 130 1.0 4.0 0.01 0.37 0.37 93 1003.5
20260506213027 59 248 2.0 7.0 0.02 0.38 0.37 93 1003.5
20260506211539 59 63 1.0 6.0 0.05 0.38 0.37 94 1003.5
20260506210030 59 161 1.0 5.0 0.06 0.38 0.37 94 1003.6
20260506204523 59 128 1.0 4.0 0.05 0.37 0.36 94 1003.7
20260506203023 59 191 1.0 5.0 0.04 0.36 0.35 94 1003.9
20260506201510 59 350 1.0 7.0 0.01 0.33 0.32 93 1003.9
20260506200014 59 164 2.0 4.0 0.03 0.32 0.31 93 1004.0
20260506194518 59 255 1.0 4.0 0.06 0.32 0.31 93 1004.1
20260506193036 59 169 1.0 6.0 0.10 0.32 0.31 94 1004.4
20260506191526 59 237 0.0 2.0 0.11 0.32 0.31 94 1004.6
20260506190013 59 171 0.0 3.0 0.10 0.29 0.28 94 1004.8
20260506184516 59 229 0.0 5.0 0.09 0.26 0.25 93 1004.7
20260506183022 59 157 2.0 4.0 0.08 0.22 0.21 93 1004.9
20260506181536 59 277 2.0 7.0 0.11 0.21 0.20 93 1005.1
20260506180010 59 210 1.0 6.0 0.13 0.19 0.18 93 1005.6
20260506174515 59 195 0.0 6.0 0.13 0.17 0.16 93 1005.9
20260506173024 59 131 2.0 8.0 0.12 0.14 0.13 92 1005.8
20260506171528 59 205 3.0 9.0 0.09 0.10 0.09 91 1005.9
20260506170026 60 181 0.0 3.0 0.05 0.06 0.05 91 1005.9
20260506164511 60 268 1.0 3.0 0.03 0.04 0.03 88 1006.1
20260506163024 61 202 1.0 5.0 0.01 0.02 0.01 85 1006.2
20260506161521 61 292 1.0 5.0 0.00 0.01 0.00 85 1006.2
20260506160024 61 178 1.0 6.0 0.00 0.01 0.00 84 1006.5
20260506154529 61 236 1.0 4.0 0.00 0.01 0.00 83 1006.8
20260506153021 61 270 2.0 8.0 0.00 0.01 0.00 83 1007.1
20260506151519 61 244 2.0 8.0 0.00 0.01 0.00 80 1007.3
20260506150022 61 187 2.0 7.0 0.00 0.01 0.00 80 1007.4
20260506144526 61 252 1.0 7.0 0.00 0.01 0.00 80 1007.2
20260506143029 61 289 1.0 7.0 0.00 0.01 0.00 80 1007.0
20260506141517 60 254 3.0 9.0 0.00 0.01 0.00 81 1007.2
20260506140023 61 246 2.0 10.0 0.00 0.01 0.00 80 1007.2
20260506134525 60 236 2.0 6.0 0.00 0.01 0.00 81 1007.2
20260506133025 59 223 0.0 8.0 0.00 0.01 0.00 82 1007.3
20260506131528 59 203 0.0 6.0 0.00 0.01 0.00 83 1007.6
20260506130022 59 159 0.0 7.0 0.00 0.01 0.00 83 1007.9
20260506124522 58 259 4.0 7.0 0.00 0.01 0.00 84 1007.7
20260506123026 58 240 3.0 9.0 0.00 0.01 0.00 84 1007.4
20260506121525 58 92 1.0 6.0 0.00 0.01 0.00 84 1007.2
20260506120023 57 360 1.0 8.0 0.00 0.01 0.00 85 1007.5
20260506114524 57 256 1.0 4.0 0.00 0.01 0.00 86 1007.6
20260506113006 57 225 2.0 5.0 0.00 0.01 0.00 86 1007.6
20260506111511 56 205 2.0 7.0 0.00 0.01 0.00 88 1007.7
20260506110015 54 239 1.0 4.0 0.00 0.01 0.00 91 1007.7
20260506104546 52 84 1.0 4.0 0.00 0.01 0.00 95 1007.6
20260506103038 0 0.0 0.0 0.00 0.01 0.00 1007.6
20260506101532 0 0.0 0.0 0.00 0.01 0.00 1007.8
20260506100039 0 0.0 0.0 0.00 0.01 0.00 1008.0
20260506094533 0 0.0 0.0 0.00 0.01 0.00 1007.6
20260506093032 0 0.0 0.0 0.00 0.01 0.00 1007.6
20260506091531 0 0.0 0.0 0.00 0.01 0.00 1007.6
20260506090041 0 0.0 0.0 0.00 0.01 0.00 1007.5